Date String (YYYY-MM-DD hh:mm:ss) UTC,Instrument flags,Ambient pressure (hPa),Sample flow (lpm),Bypass flow (lpm),Sample temperature (°C),Ambient temperature (°C),ASC tube jacket temperature (°C),LED temperature (°C),Box temperature (°C),Sample RH (%),Span deviation,Mass concentration (μg/m³),Mass concentration (μg/m³),Mass concentration (μg/m³)
DateTimeUTC,F1_M11,P_M11,Q1_M11,Q2_M11,T1_M11,T2_M11,T3_M11,T4_M11,T5_M11,U1_M11,ZSPAN_M11,X2_M11,X0_M11,X1_M11
2023-05-15 16:00:00,,0843.0,4.99,0.00,28.4,26.5,00.0,36.9,29.9,26.4,0000.0,0000.93,0001.46,0000.76
2023-05-15 16:01:00,,0843.0,5.00,0.00,28.3,26.5,00.0,36.9,29.9,26.5,0000.0,0000.95,0001.46,0000.80
2023-05-15 16:02:00,,0842.9,5.00,0.00,28.3,26.5,00.0,36.9,29.9,26.4,0000.0,0000.99,0001.50,0000.84
2023-05-15 16:03:00,,0843.0,5.00,0.00,28.3,26.5,00.0,36.9,29.9,26.4,0000.0,0001.02,0001.60,0000.89
2023-05-15 16:04:00,,0843.0,5.00,0.00,28.3,26.5,00.0,36.8,29.9,26.6,0000.0,0001.08,0001.73,0000.92
2023-05-15 16:05:00,,0843.0,5.00,0.00,28.3,26.6,00.0,36.8,29.9,26.6,0000.0,0001.10,0001.79,0000.93
2023-05-15 16:06:00,,0842.9,5.00,0.00,28.4,26.6,00.0,36.8,29.9,26.5,0000.0,0001.10,0001.78,0000.93
2023-05-15 16:07:00,,0842.9,5.00,0.00,28.4,26.6,00.0,36.8,30.0,26.7,0000.0,0001.12,0001.85,0000.94
2023-05-15 16:08:00,,0842.9,5.00,0.00,28.4,26.7,00.0,36.8,30.0,26.8,0000.0,0001.12,0001.88,0000.93
2023-05-15 16:09:00,,0842.9,5.01,0.00,28.4,26.7,00.0,36.8,30.0,26.6,0000.0,0001.11,0001.82,0000.92
2023-05-15 16:10:00,,0842.9,5.00,0.00,28.4,26.7,00.0,36.8,30.0,26.4,0000.0,0001.11,0001.74,0000.92
2023-05-15 16:11:00,,0842.9,4.98,0.00,28.4,26.7,00.0,36.8,30.0,26.4,0000.0,0001.10,0001.91,0000.91
2023-05-15 16:12:00,,0842.9,5.00,0.00,28.4,26.7,00.0,36.8,30.0,26.3,0000.0,0001.11,0001.94,0000.91
2023-05-15 16:13:00,,0842.9,5.01,0.00,28.4,26.7,00.0,36.8,30.0,26.5,0000.0,0001.10,0001.93,0000.90
2023-05-15 16:14:00,,0842.9,5.01,0.00,28.4,26.8,00.0,36.8,30.0,26.7,0000.0,0001.10,0001.89,0000.89
2023-05-15 16:15:00,,0842.9,4.99,0.00,28.4,26.8,00.0,36.8,30.0,26.6,0000.0,0001.09,0001.80,0000.87
2023-05-15 16:16:00,,0842.8,5.00,0.00,28.4,26.8,00.0,36.8,30.0,26.6,0000.0,0001.07,0001.76,0000.86
2023-05-15 16:17:00,,0842.8,5.01,0.00,28.4,26.8,00.0,36.8,30.0,26.6,0000.0,0001.05,0001.69,0000.85
2023-05-15 16:18:00,,0842.8,5.00,0.00,28.4,26.9,00.0,36.8,30.0,26.8,0000.0,0001.04,0001.68,0000.85
2023-05-15 16:19:00,,0842.8,4.99,0.00,28.4,26.9,00.0,36.8,30.1,26.1,0000.0,0001.02,0001.64,0000.84
2023-05-15 16:20:00,,0842.8,5.01,0.00,28.5,26.9,00.0,36.8,30.1,25.9,0000.0,0001.02,0001.65,0000.84
2023-05-15 16:21:00,,0842.8,5.00,0.00,28.5,27.0,00.0,36.8,30.1,25.9,0000.0,0001.00,0001.58,0000.83
2023-05-15 16:22:00,,0842.8,5.00,0.00,28.5,27.0,00.0,36.8,30.1,26.2,0000.0,0000.98,0001.42,0000.83
2023-05-15 16:23:00,,0842.8,4.99,0.00,28.5,27.0,00.0,36.8,30.1,26.1,0000.0,0000.99,0001.35,0000.84
2023-05-15 16:24:00,,0842.8,5.01,0.00,28.5,27.0,00.0,36.8,30.1,26.3,0000.0,0001.01,0001.37,0000.86
2023-05-15 16:25:00,,0842.8,5.01,0.00,28.5,27.0,00.0,36.8,30.1,27.0,0000.0,0001.01,0001.39,0000.87
2023-05-15 16:26:00,,0842.8,5.00,0.00,28.5,27.0,00.0,36.8,30.1,27.3,0000.0,0001.02,0001.40,0000.88
2023-05-15 16:27:00,,0842.8,4.99,0.00,28.5,27.1,00.0,36.8,30.1,26.7,0000.0,0001.03,0001.56,0000.89
2023-05-15 16:28:00,,0842.8,4.99,0.00,28.5,27.1,00.0,36.8,30.1,26.5,0000.0,0001.07,0001.79,0000.91
2023-05-15 16:29:00,,0842.8,5.00,0.00,28.5,27.1,00.0,36.8,30.1,26.5,0000.0,0001.09,0001.82,0000.93
2023-05-15 16:30:00,,0842.8,5.00,0.00,28.6,27.1,00.0,36.8,30.2,26.4,0000.0,0001.11,0001.85,0000.95
2023-05-15 16:31:00,,0842.8,5.00,0.00,28.5,27.1,00.0,36.9,30.1,26.1,0000.0,0001.14,0001.90,0000.98
2023-05-15 16:32:00,,0842.8,5.00,0.00,28.5,27.0,00.0,36.9,30.1,26.1,0000.0,0001.18,0001.98,0001.00
2023-05-15 16:33:00,,0842.8,5.00,0.00,28.5,27.0,00.0,36.9,30.1,26.1,0000.0,0001.19,0001.97,0001.01
2023-05-15 16:34:00,,0842.8,5.01,0.00,28.5,27.0,00.0,36.9,30.1,26.0,0000.0,0001.19,0001.97,0001.02
2023-05-15 16:35:00,,0842.8,5.00,0.00,28.5,26.9,00.0,36.9,30.1,25.7,0000.0,0001.19,0001.95,0001.02
2023-05-15 16:36:00,,0842.8,4.98,0.00,28.5,26.9,00.0,36.9,30.1,25.4,0000.0,0001.17,0001.88,0001.02
2023-05-15 16:37:00,,0842.8,5.00,0.00,28.5,26.9,00.0,36.9,30.1,25.0,0000.0,0001.14,0001.81,0001.01
2023-05-15 16:38:00,,0842.7,5.01,0.00,28.5,26.9,00.0,36.9,30.1,25.7,0000.0,0001.14,0001.70,0001.01
2023-05-15 16:39:00,,0842.8,5.01,0.00,28.5,26.9,00.0,36.9,30.1,26.0,0000.0,0001.11,0001.46,0001.00
2023-05-15 16:40:00,,0842.8,5.01,0.00,28.5,26.9,00.0,36.9,30.1,25.9,0000.0,0001.10,0001.44,0000.99
2023-05-15 16:41:00,,0842.8,4.98,0.00,28.5,26.9,00.0,36.9,30.1,26.1,0000.0,0001.09,0001.42,0000.98
2023-05-15 16:42:00,,0842.8,5.00,0.00,28.5,27.0,00.0,36.9,30.1,26.1,0000.0,0001.07,0001.40,0000.97
2023-05-15 16:43:00,,0842.8,5.00,0.00,28.5,27.0,00.0,36.9,30.1,26.4,0000.0,0001.04,0001.34,0000.95
2023-05-15 16:44:00,,0842.8,5.01,0.00,28.5,27.0,00.0,36.9,30.1,26.7,0000.0,0001.04,0001.35,0000.94
2023-05-15 16:45:00,,0842.8,5.01,0.00,28.5,27.0,00.0,36.9,30.1,26.8,0000.0,0001.05,0001.36,0000.95
2023-05-15 16:46:00,,0842.8,4.97,0.00,28.5,27.0,00.0,36.9,30.1,26.2,0000.0,0001.08,0001.43,0000.97
2023-05-15 16:47:00,,0842.8,5.01,0.00,28.5,27.0,00.0,36.9,30.1,26.1,0000.0,0001.15,0001.59,0001.03
2023-05-15 16:48:00,,0842.8,5.01,0.00,28.5,27.0,00.0,36.9,30.2,27.1,0000.0,0001.25,0001.88,0001.13
2023-05-15 16:49:00,,0842.8,4.98,0.00,28.5,27.0,00.0,36.9,30.2,27.4,0000.0,0001.37,0002.33,0001.25
2023-05-15 16:50:00,,0842.8,5.00,0.00,28.5,27.0,00.0,36.9,30.1,26.5,0000.0,0001.47,0002.41,0001.33
2023-05-15 16:51:00,,0842.8,5.01,0.00,28.5,27.0,00.0,36.9,30.1,26.1,0000.0,0001.58,0002.55,0001.44
2023-05-15 16:52:00,,0842.8,5.01,0.00,28.5,26.9,00.0,36.9,30.1,26.8,0000.0,0001.72,0002.69,0001.55
2023-05-15 16:53:00,,0842.7,5.00,0.00,28.5,27.0,00.0,36.9,30.1,26.5,0000.0,0001.90,0002.99,0001.70
2023-05-15 16:54:00,,0842.7,4.99,0.00,28.5,26.9,00.0,36.9,30.1,26.9,0000.0,0002.09,0004.64,0001.90
2023-05-15 16:55:00,,0842.7,5.00,0.00,28.5,27.0,00.0,36.9,30.1,26.5,0000.0,0002.30,0004.85,0002.10
2023-05-15 16:56:00,,0842.7,5.00,0.00,28.5,27.0,00.0,36.9,30.1,26.5,0000.0,0002.48,0005.02,0002.27
2023-05-15 16:57:00,,0842.6,5.00,0.00,28.5,27.0,00.0,36.9,30.1,26.4,0000.0,0002.65,0005.25,0002.43
2023-05-15 16:58:00,,0842.7,5.01,0.00,28.6,27.0,00.0,36.9,30.2,26.5,0000.0,0002.78,0005.27,0002.56
2023-05-15 16:59:00,,0842.7,5.01,0.00,28.6,27.0,00.0,36.9,30.2,26.5,0000.0,0002.90,0005.42,0002.67
